{"data":{"norad_id":67764,"intl_designator":"2026-030A","name":"KUIPER-00159","alt_names":[],"object_type":"PAYLOAD","status":"ACTIVE","operator":null,"country":"US","launch_date":"2026-02-12","launch_site_code":"FRGUI","launch_vehicle":null,"mission":null,"orbit_class":"UNKNOWN","rcs_meters":null,"size_class":null,"mass_kg":null,"dimensions":null,"purposes":[],"wikipedia_slug":null,"has_3d_model":false,"image_url":null,"decayed_at":null,"tle_current":{"epoch":"2026-09-19T19:43:35.460480Z","epoch_age_seconds":147812,"freshness":"FRESH","line1":"1 67764U 26030A   26262.82193820  .00030410  00000+0  43058-2 0  9991","line2":"2 67764  51.9029  25.8853 0000841 130.3121 229.7914 14.76806610 34609","mean_motion":14.7680661,"eccentricity":8.41e-5,"inclination_deg":51.9029,"raan_deg":25.8853,"arg_perigee_deg":130.3121,"mean_anomaly_deg":229.7914,"bstar":0.0043058,"rev_number":3460,"period_min":97.507689243076,"perigee_km":638.83209778447,"apogee_km":640.01245125445,"semimajor_km":7017.5592745195,"source":"CELESTRAK","updated_at":"2026-09-21T09:00:16.826894Z"}}}